• en France
  • Liste des pays
  • À 7 jours
  • Température de l'eau
  • Carte satellitaire
  • Carte météo
  • Widgets météo
  • user-avatar
    Se connecter

    Météo par heure à Harada

    Ce jour, 22 Août, Mercredi

    Heure Température Précipitation Vent Pression Humidité
    00:00 +9°C° 0 mm 2 m/s 603 mmHg 64%
    01:00 +9°C° 0 mm 2 m/s 603 mmHg 64%
    02:00 +9°C° 0 mm 2 m/s 603 mmHg 63%
    03:00 +9°C° 0 mm 2 m/s 603 mmHg 64%
    04:00 +10°C° 0 mm 2 m/s 603 mmHg 64%
    05:00 +10°C° 0 mm 2 m/s 604 mmHg 65%
    06:00 +12°C° 0 mm 1 m/s 604 mmHg 65%
    07:00 +13°C° 0 mm 1 m/s 605 mmHg 60%
    08:00 +15°C° 0 mm 1 m/s 605 mmHg 55%
    09:00 +18°C° 0 mm 1 m/s 606 mmHg 50%
    10:00 +19°C° 0,1 mm 1 m/s 606 mmHg 49%
    11:00 +19°C° 0,1 mm 2 m/s 606 mmHg 48%
    12:00 +20°C° 0,1 mm 2 m/s 607 mmHg 47%
    13:00 +20°C° 0,2 mm 2 m/s 606 mmHg 49%
    14:00 +20°C° 0,2 mm 2 m/s 606 mmHg 51%
    15:00 +19°C° 0,2 mm 2 m/s 606 mmHg 53%
    16:00 +18°C° 0,3 mm 2 m/s 606 mmHg 59%
    17:00 +18°C° 0,3 mm 1 m/s 605 mmHg 66%
    18:00 +16°C° 0,3 mm 1 m/s 605 mmHg 72%
    19:00 +15°C° 0,1 mm 1 m/s 605 mmHg 75%
    20:00 +14°C° 0,1 mm 1 m/s 605 mmHg 79%
    21:00 +13°C° 0,1 mm 1 m/s 605 mmHg 82%
    22:00 +13°C° 0,1 mm 1 m/s 605 mmHg 82%
    23:00 +12°C° 0,1 mm 1 m/s 604 mmHg 83%

    Demain, 23 Août, Jeudi

    Heure Température Précipitation Vent Pression Humidité
    00:00 +12°C° 0,1 mm 1 m/s 604 mmHg 84%
    01:00 +11°C° 0 mm 1 m/s 604 mmHg 83%
    02:00 +11°C° 0 mm 1 m/s 604 mmHg 83%
    03:00 +11°C° 0 mm 1 m/s 604 mmHg 83%
    04:00 +11°C° 0 mm 1 m/s 604 mmHg 81%
    05:00 +11°C° 0 mm 1 m/s 604 mmHg 80%
    06:00 +12°C° 0 mm 1 m/s 605 mmHg 79%
    07:00 +14°C° 0 mm 1 m/s 606 mmHg 71%
    08:00 +16°C° 0 mm 1 m/s 606 mmHg 63%
    09:00 +19°C° 0 mm 1 m/s 607 mmHg 56%
    10:00 +18°C° 0 mm 2 m/s 608 mmHg 54%
    11:00 +19°C° 0 mm 2 m/s 608 mmHg 53%
    12:00 +20°C° 0 mm 2 m/s 608 mmHg 51%
    13:00 +19°C° 0,1 mm 2 m/s 608 mmHg 53%
    14:00 +19°C° 0,1 mm 2 m/s 607 mmHg 55%
    15:00 +19°C° 0,1 mm 2 m/s 607 mmHg 57%
    16:00 +19°C° 0 mm 1 m/s 607 mmHg 60%
    17:00 +18°C° 0 mm 1 m/s 607 mmHg 64%
    18:00 +18°C° 0 mm 1 m/s 606 mmHg 67%
    19:00 +15°C° 0 mm 1 m/s 606 mmHg 71%
    20:00 +14°C° 0 mm 1 m/s 606 mmHg 74%
    21:00 +12°C° 0 mm 1 m/s 606 mmHg 78%
    22:00 +12°C° 0 mm 1 m/s 606 mmHg 78%
    23:00 +11°C° 0 mm 1 m/s 606 mmHg 78%

    Après-demain, 24 Août, Vendredi

    Heure Température Précipitation Vent Pression Humidité
    00:00 +11°C° 0 mm 1 m/s 605 mmHg 79%
    01:00 +11°C° 0 mm 1 m/s 605 mmHg 78%
    02:00 +10°C° 0 mm 2 m/s 605 mmHg 77%
    03:00 +9°C° 0 mm 2 m/s 605 mmHg 76%
    04:00 +10°C° 0 mm 2 m/s 605 mmHg 75%
    05:00 +10°C° 0 mm 2 m/s 605 mmHg 75%
    06:00 +10°C° 0 mm 2 m/s 606 mmHg 74%
    07:00 +13°C° 0 mm 2 m/s 606 mmHg 67%
    08:00 +16°C° 0 mm 2 m/s 607 mmHg 59%
    09:00 +18°C° 0 mm 2 m/s 608 mmHg 52%
    10:00 +19°C° 0 mm 2 m/s 608 mmHg 51%
    11:00 +20°C° 0 mm 2 m/s 609 mmHg 49%
    12:00 +21°C° 0 mm 2 m/s 609 mmHg 48%
    13:00 +21°C° 0,1 mm 2 m/s 608 mmHg 49%
    14:00 +21°C° 0,1 mm 2 m/s 608 mmHg 50%
    15:00 +21°C° 0,1 mm 2 m/s 608 mmHg 51%
    16:00 +19°C° 0,1 mm 2 m/s 607 mmHg 56%
    17:00 +18°C° 0,1 mm 2 m/s 607 mmHg 61%
    18:00 +18°C° 0,1 mm 1 m/s 606 mmHg 66%
    19:00 +16°C° 0 mm 1 m/s 606 mmHg 67%
    20:00 +14°C° 0 mm 2 m/s 605 mmHg 68%
    21:00 +13°C° 0 mm 2 m/s 605 mmHg 69%
    22:00 +12°C° 0 mm 2 m/s 605 mmHg 68%
    23:00 +12°C° 0 mm 2 m/s 605 mmHg 68%

    25 Août, Samedi

    Heure Température Précipitation Vent Pression Humidité
    00:00 +10°C° 0 mm 2 m/s 604 mmHg 68%
    01:00 +10°C° 0 mm 2 m/s 604 mmHg 70%
    02:00 +10°C° 0 mm 2 m/s 604 mmHg 72%
    03:00 +10°C° 0 mm 2 m/s 603 mmHg 75%
    04:00 +10°C° 0 mm 2 m/s 604 mmHg 75%
    05:00 +10°C° 0 mm 2 m/s 604 mmHg 75%
    06:00 +12°C° 0 mm 2 m/s 604 mmHg 76%
    07:00 +14°C° 0 mm 2 m/s 605 mmHg 68%
    08:00 +18°C° 0 mm 1 m/s 606 mmHg 61%
    09:00 +20°C° 0 mm 1 m/s 607 mmHg 53%
    10:00 +20°C° 0,1 mm 2 m/s 607 mmHg 52%
    11:00 +21°C° 0,1 mm 2 m/s 607 mmHg 50%
    12:00 +23°C° 0,1 mm 2 m/s 607 mmHg 49%
    13:00 +23°C° 0,4 mm 2 m/s 606 mmHg 50%
    14:00 +21°C° 0,4 mm 2 m/s 606 mmHg 51%
    15:00 +21°C° 0,4 mm 2 m/s 606 mmHg 52%
    16:00 +20°C° 0,1 mm 2 m/s 605 mmHg 57%
    17:00 +20°C° 0,1 mm 1 m/s 605 mmHg 61%
    18:00 +19°C° 0,1 mm 1 m/s 605 mmHg 66%
    19:00 +16°C° 0 mm 1 m/s 604 mmHg 69%
    20:00 +15°C° 0 mm 1 m/s 604 mmHg 73%
    21:00 +13°C° 0 mm 1 m/s 603 mmHg 76%
    22:00 +13°C° 0 mm 1 m/s 603 mmHg 75%
    23:00 +13°C° 0 mm 1 m/s 603 mmHg 74%

    26 Août, Dimanche

    Heure Température Précipitation Vent Pression Humidité
    00:00 +12°C° 0 mm 2 m/s 603 mmHg 73%
    01:00 +12°C° 0 mm 2 m/s 602 mmHg 71%
    02:00 +12°C° 0 mm 2 m/s 602 mmHg 69%
    03:00 +10°C° 0 mm 2 m/s 602 mmHg 67%
    04:00 +12°C° 0 mm 2 m/s 602 mmHg 64%
    05:00 +12°C° 0 mm 2 m/s 602 mmHg 61%
    06:00 +12°C° 0 mm 2 m/s 602 mmHg 58%
    07:00 +15°C° 0 mm 1 m/s 603 mmHg 52%
    08:00 +18°C° 0 mm 1 m/s 604 mmHg 46%
    09:00 +21°C° 0 mm 1 m/s 606 mmHg 40%
    10:00 +21°C° 0 mm 2 m/s 606 mmHg 40%
    11:00 +23°C° 0 mm 2 m/s 606 mmHg 40%
    12:00 +24°C° 0 mm 2 m/s 606 mmHg 39%
    13:00 +24°C° 0 mm 2 m/s 605 mmHg 40%
    14:00 +24°C° 0 mm 2 m/s 605 mmHg 40%
    15:00 +24°C° 0 mm 2 m/s 605 mmHg 40%
    16:00 +21°C° 0 mm 2 m/s 604 mmHg 46%
    17:00 +19°C° 0 mm 2 m/s 604 mmHg 51%
    18:00 +19°C° 0 mm 1 m/s 603 mmHg 56%
    19:00 +16°C° 0 mm 1 m/s 603 mmHg 58%
    20:00 +15°C° 0 mm 1 m/s 602 mmHg 60%
    21:00 +13°C° 0 mm 1 m/s 602 mmHg 61%
    22:00 +13°C° 0 mm 1 m/s 602 mmHg 57%
    23:00 +13°C° 0 mm 2 m/s 602 mmHg 53%

    27 Août, Lundi

    Heure Température Précipitation Vent Pression Humidité
    00:00 +12°C° 0 mm 2 m/s 602 mmHg 49%
    01:00 +12°C° 0 mm 2 m/s 601 mmHg 48%
    02:00 +12°C° 0 mm 2 m/s 601 mmHg 48%
    03:00 +12°C° 0 mm 2 m/s 601 mmHg 47%
    04:00 +12°C° 0 mm 2 m/s 601 mmHg 50%
    05:00 +12°C° 0 mm 2 m/s 602 mmHg 53%
    06:00 +12°C° 0 mm 1 m/s 602 mmHg 55%
    07:00 +15°C° 0 mm 1 m/s 603 mmHg 51%
    08:00 +18°C° 0 mm 1 m/s 604 mmHg 47%
    09:00 +21°C° 0 mm 1 m/s 605 mmHg 43%
    10:00 +20°C° 0 mm 2 m/s 605 mmHg 43%
    11:00 +21°C° 0 mm 2 m/s 605 mmHg 43%
    12:00 +23°C° 0 mm 2 m/s 605 mmHg 43%
    13:00 +21°C° 0,5 mm 2 m/s 605 mmHg 45%
    14:00 +21°C° 0,5 mm 2 m/s 605 mmHg 47%
    15:00 +21°C° 0,5 mm 2 m/s 604 mmHg 48%
    16:00 +20°C° 0,3 mm 2 m/s 604 mmHg 53%
    17:00 +18°C° 0,3 mm 2 m/s 604 mmHg 58%
    18:00 +18°C° 0,3 mm 1 m/s 604 mmHg 63%
    19:00 +16°C° 0,1 mm 1 m/s 603 mmHg 68%
    20:00 +14°C° 0,1 mm 1 m/s 603 mmHg 72%
    21:00 +12°C° 0,1 mm 1 m/s 603 mmHg 76%
    22:00 +12°C° 0,1 mm 1 m/s 603 mmHg 76%
    23:00 +12°C° 0,1 mm 1 m/s 602 mmHg 75%
    Voir plus